Regional Weather Roundup
Issued by NWS

Home | Current Version | Previous Version | Graphics & Text | Print | Product List | Glossary On
Versions: 1 2 3 4 5 6 7 8 9 10 11 12 13 14 15 16 17 18 19 20 21 22 23 24 25 26 27 28 29 30 31 32 33 34 35 36 37 38 39 40 41 42 43 44 45 46 47 48 49 50
000
ASUS45 KBOI 271410
RWRID
WEATHER ROUNDUP FOR IDAHO
NATIONAL WEATHER SERVICE BOISE ID
700 AM MST THU NOV 27 2014

NOTE: "FAIR" INDICATES FEW OR NO CLOUDS BELOW 12000 FEET
WITH NO SIGNIFICANT WEATHER AND/OR OBSTRUCTIONS TO VISIBILITY

IDZ012-014-271500-
SOUTHWEST IDAHO


CITY           SKY/WX    TMP DP  RH WIND       PRES   REMARKS
BOISE          CLOUDY    45  37  73 SE12      30.15S
CALDWELL       NOT AVBL
MOUNTAIN HOME  CLOUDY    44  43  95 E10       30.17R
$$

IDZ016-017-271500-
SOUTHCENTRAL IDAHO


CITY           SKY/WX    TMP DP  RH WIND       PRES   REMARKS
BURLEY         CLOUDY    47  29  49 SW12      30.19R
JEROME         CLOUDY    46  30  53 E7        30.20R
TWIN FALLS     CLOUDY    54  29  38 S13       30.19S
$$

IDZ019>023-271500-
SOUTHEAST IDAHO


CITY           SKY/WX    TMP DP  RH WIND       PRES   REMARKS
IDAHO FALLS    CLOUDY    34  30  85 VRB5      30.19F WCI  30
POCATELLO      CLEAR     52  26  36 S16G24    30.19R
REXBURG        CLOUDY    33  30  88 NE5       30.20R WCI  29
$$

IDZ006-010-011-018-031-032-271500-
CENTRAL IDAHO MOUNTAINS


CITY           SKY/WX    TMP DP  RH WIND       PRES   REMARKS
MCCALL         CLOUDY    36  33  89 NW5       30.12F WCI  32
HAILEY         MOCLDY    36  27  69 NW7       30.23S WCI  30
STANLEY          N/A     38  24  57 CALM      30.21S
SALMON         CLOUDY    32  30  93 SE6       30.14F WCI  26
CHALLIS        CLOUDY    32  28  85 CALM      30.15F
$$

IDZ002-004-006-007-026-271500-
NORTHERN IDAHO


CITY           SKY/WX    TMP DP  RH WIND       PRES   REMARKS
LEWISTON       CLOUDY    45  42  89 CALM      29.96R
LOWELL           N/A     40  38  93 NW3       30.07F
COEUR D`ALENE  CLOUDY    50  39  66 SW9       29.87S
MULLAN PASS    LGT RAIN  36  32  85 SW16G30   29.93S WCI  26
$$


USA.gov is the U.S. government's official web portal to all federal, state and local government web resources and services.